Ellensburg, WA
on Friday, December 14, 2012

Friday
Previous Day Next Day
Daily Summary
 ActualAverage (KYKM)Record (KYKM)
Temperature
Mean Temperature °F 28°F  
Max Temperature 32°F 35°F 57°F (1979)
Min Temperature 21°F 21°F -8°F (1972)
Degree Days
Heating Degree Days 38 37  
Month to date heating degree days 495  
Since 1 July heating degree days 2028  
Cooling Degree Days 0 0  
Month to date cooling degree days 0  
Year to date cooling degree days 472  
Moisture
Dew Point 27°F   
Average Humidity 86    
Maximum Humidity 93    
Minimum Humidity 80    
Precipitation
Precipitation 0.07 in 0.05 in 0.97 in (2006)
Month to date precipitation 0.67  
Year to date precipitation 7.39  
Snow
Snow 0.00 in 0.30 in 5.40 in (1981)
Month to date snowfall 4.0  
Year to date snowfall 16.2  
Since 1 July snowfall 7.6  
Snow Depth in   
Wind
Wind Speed 1 mph   
Max Wind Speed 4 mph   
Max Gust Speed mph   
Visibility 2 miles   
Events Fog , Snow   

Key: T is trace of precipitation, MM is missing value
Source: NWS Daily Summary
Time(PST)TemperatureDew PointHumidity Pressure Visibility Wind DirectionWind SpeedGust SpeedPrecipitationEvents Conditions
12:10 AM 30.2°F 26.6°F 86% 29.81 in 2.0 miles South 3.5 mph - 0.00 in Snow Light Snow
12:25 AM 30.2°F 26.6°F 86% 29.80 in 2.0 miles South 3.5 mph - 0.00 in Snow Light Snow
12:34 AM 30.2°F 26.6°F 86% 29.80 in 1.8 miles Calm Calm - 0.00 in Snow Light Snow
12:42 AM 30.2°F 26.6°F 86% 29.80 in 2.0 miles Calm Calm - 0.00 in Snow Light Snow
12:53 AM 30.9°F 28.0°F 89% 29.85 in 2.0 miles Calm Calm - 0.00 in Snow Light Snow
1:00 AM 30.2°F 28.4°F 93% 29.80 in 1.8 miles Calm Calm - 0.01 in Snow Light Snow
1:53 AM 30.9°F 27.0°F 85% 29.83 in 2.5 miles Calm Calm - 0.02 in Snow Light Snow
2:07 AM 30.2°F 26.6°F 86% 29.78 in 1.5 miles Calm Calm - 0.00 in Snow Light Snow
2:28 AM 30.2°F 26.6°F 86% 29.78 in 2.0 miles Calm Calm - 0.01 in Snow Light Snow
2:46 AM 30.2°F 26.6°F 86% 29.77 in 2.0 miles Calm Calm - 0.01 in Snow Light Snow
2:53 AM 30.9°F 27.0°F 85% 29.83 in 2.0 miles Calm Calm - 0.01 in Snow Light Snow
3:23 AM 30.2°F 26.6°F 86% 29.77 in 2.5 miles Calm Calm - 0.00 in Snow Light Snow
3:51 AM 30.2°F 26.6°F 86% 29.76 in 1.8 miles Calm Calm - 0.01 in Snow Light Snow
3:53 AM 30.9°F 27.0°F 85% 29.81 in 1.8 miles Calm Calm - 0.01 in Snow Light Snow
4:04 AM 30.2°F 26.6°F 86% 29.75 in 2.0 miles Calm Calm - 0.00 in Snow Light Snow
4:22 AM 30.2°F 26.6°F 86% 29.75 in 3.0 miles Calm Calm - 0.00 in Snow Light Snow
4:33 AM 30.2°F 26.6°F 86% 29.75 in 2.5 miles Calm Calm - 0.01 in Snow Light Snow
4:53 AM 30.0°F 27.0°F 88% 29.79 in 2.5 miles Calm Calm - 0.01 in Snow Light Snow
5:23 AM 30.2°F 26.6°F 86% 29.74 in 3.0 miles Calm Calm - 0.00 in Snow Light Snow
5:36 AM 30.2°F 26.6°F 86% 29.74 in 3.0 miles Calm Calm - 0.00 in Snow Light Snow
5:50 AM 30.2°F 26.6°F 86% 29.74 in 3.0 miles Calm Calm - 0.00 in Snow Light Snow
5:53 AM 30.0°F 26.1°F 85% 29.79 in 3.0 miles Calm Calm - 0.00 in Snow Light Snow
6:02 AM 30.2°F 26.6°F 86% 29.74 in 2.5 miles Calm Calm - 0.01 in Snow Light Snow
6:20 AM 30.2°F 26.6°F 86% 29.75 in 2.0 miles Calm Calm - 0.01 in Snow Light Snow
6:37 AM 30.2°F 26.6°F 86% 29.75 in 3.0 miles Calm Calm - 0.01 in Snow Light Snow
6:50 AM 30.2°F 26.6°F 86% 29.74 in 2.5 miles Calm Calm - 0.01 in Snow Light Snow
6:53 AM 30.9°F 27.0°F 85% 29.79 in 2.5 miles Calm Calm - 0.01 in Snow Light Snow
7:16 AM 30.2°F 26.6°F 86% 29.74 in 2.0 miles Calm Calm - 0.01 in Snow Light Snow
7:29 AM 30.2°F 26.6°F 86% 29.74 in 3.0 miles Calm Calm - 0.01 in Snow Light Snow
7:53 AM 30.0°F 26.1°F 85% 29.80 in 4.0 miles Calm Calm - 0.01 in   Overcast
8:53 AM 30.9°F 27.0°F 85% 29.81 in 2.5 miles Calm Calm - 0.00 in Snow Light Snow
9:09 AM 30.2°F 26.6°F 86% 29.77 in 1.8 miles Calm Calm - 0.00 in Snow Light Snow
9:20 AM 30.2°F 28.4°F 93% 29.77 in 2.5 miles Calm Calm - 0.00 in Snow Light Snow
9:29 AM 32.0°F 26.6°F 80% 29.77 in 4.0 miles Calm Calm - 0.00 in Snow Light Snow
9:50 AM 32.0°F 28.4°F 87% 29.78 in 5.0 miles Calm Calm - 0.00 in   Overcast
9:53 AM 32.0°F 28.0°F 85% 29.82 in 5.0 miles Calm Calm - 0.00 in   Overcast
10:07 AM 32.0°F 28.4°F 87% 29.78 in 6.0 miles Calm Calm - N/A   Mostly Cloudy
10:53 AM 30.9°F 27.0°F 85% 29.82 in 4.0 miles Calm Calm - N/A   Overcast
11:30 AM 32.0°F 28.4°F 87% 29.77 in 1.8 miles Calm Calm - N/A   Overcast
11:34 AM 32.0°F 28.4°F 87% 29.77 in 0.8 miles Calm Calm - N/A   Overcast
11:53 AM 32.0°F 27.0°F 82% 29.82 in 1.2 miles Calm Calm - N/A   Haze
12:02 PM 32.0°F 26.6°F 80% 29.77 in 3.0 miles Calm Calm - N/A   Haze
12:24 PM 32.0°F 28.4°F 87% 29.77 in 1.8 miles ENE 3.5 mph - N/A   Overcast
12:34 PM 32.0°F 26.6°F 80% 29.77 in 3.0 miles ENE 3.5 mph - N/A   Haze
12:53 PM 32.0°F 27.0°F 82% 29.82 in 8.0 miles Variable 3.5 mph - N/A   Overcast
1:53 PM 32.0°F 28.0°F 85% 29.83 in 6.0 miles Calm Calm - N/A   Overcast
2:53 PM 32.0°F 28.0°F 85% 29.85 in 6.0 miles Calm Calm - N/A   Overcast
3:53 PM 30.9°F 27.0°F 85% 29.88 in 0.8 miles West 3.5 mph - N/A   Overcast
4:53 PM 30.0°F 27.0°F 88% 29.90 in 0.2 miles Calm Calm - N/A Fog Light Freezing Fog
5:53 PM 30.0°F 26.1°F 85% 29.91 in 0.2 miles Calm Calm - N/A Fog Light Freezing Fog
6:53 PM 28.9°F 26.1°F 89% 29.93 in 0.2 miles Calm Calm - N/A Fog Light Freezing Fog
7:53 PM 28.0°F 25.0°F 88% 29.94 in 0.2 miles Calm Calm - N/A Fog Light Freezing Fog
8:53 PM 26.1°F 21.9°F 84% 29.95 in 0.2 miles North 3.5 mph - N/A Fog Light Freezing Fog
9:53 PM 26.1°F 23.0°F 88% 29.96 in 0.2 miles Calm Calm - N/A Fog Light Freezing Fog
10:53 PM 23.0°F 19.9°F 88% 29.97 in 0.2 miles Calm Calm - N/A Fog Light Freezing Fog
11:53 PM 21.9°F 19.0°F 89% 29.97 in 0.2 miles ENE 3.5 mph - N/A Fog Light Freezing Fog
Moon Phase
Dec. 14 Dec. 20 Dec. 28 Jan. 04 Jan. 11
Sunrise:07:41 AM (PST) Moon Rise:08:46 AM (PST)12/14
Sunset:04:13 PM (PST) Moon Set:06:16 PM (PST)12/14

Copyright © 2014 The Weather Underground, Inc.